Location: Luna
(33.8188°N, 108.9564°W)
Time: 09:49:27
(UTC+00:00)

Tiangong - Pass Details

Date: 10 December 2022
Orbit: 383 x 386 km, 41.5° (Epoch: 28 January)

Event Time Altitude Azimuth Distance (km) Brightness Sun altitude
Rises 01:39:35 0° 298° (WNW) 2,256 2.5 -18.7°
Reaches altitude 10° 01:41:40 10° 300° (WNW) 1,402 1.3 -19.1°
Enters shadow 01:44:28 62° 335° (NNW) 435 -2.0 -19.7°
